Hourly Data Report for April 14, 2002

SHERBROOKE A
QUEBEC

45°26'00.000" N
71°41'00.000" W
241.40 m
7028124
71610
YSC

Download Data

Hourly Data (April 2002)
Hourly Data Report for April 14, 2002
TIME
LST
Temp Definition
°C
Dew Point Definition
°C
Rel Hum Definition
%
Precip. Amount Definition
mm

Wind Dir Definition
10's deg

Wind Spd Definition
km/h
Visibility Definition
km
Stn Press Definition
kPa
Hmdx Definition


Wind Chill Definition


Weather Definition


00:00 9.5 8.9 96   3 9 9.7 98.82     Rain
01:00 9.2 8.3 94   4 11 15.0 98.76     Rain
02:00 8.6 7.9 95   3 15 15.0 98.70     Rain
03:00 8.7 8.0 95   2 15 5.6 98.72     Rain
04:00 7.7 7.0 95   3 17 4.8 98.73     Rain
05:00 6.6 5.7 94   3 15 9.7 98.80     Rain
06:00 6.2 5.3 94   3 19 15.0 98.89      
07:00 6.0 5.0 93   2 11 19.3 98.95     Mostly Cloudy
08:00 6.9 5.8 93   3 11 24.1 98.97     Mostly Cloudy
09:00 7.6 6.1 90   4 6 24.1 99.07     Mostly Cloudy
10:00 9.3 7.1 86     0 24.1 99.11     Mostly Cloudy
11:00 11.6 7.9 78   10 6 24.1 99.03     Mostly Cloudy
12:00 12.7 7.2 69   4 13 24.1 98.99     Mostly Cloudy
13:00 13.0 6.1 63   8 7 24.1 98.99     Mostly Cloudy
14:00 13.2 5.6 60   7 4 24.1 98.96     Mostly Cloudy
15:00 13.4 6.1 61   7 6 24.1 98.92     Mostly Cloudy
16:00 13.5 6.6 63   8 9 24.1 98.90     Mostly Cloudy
17:00 12.9 6.8 66   11 13 15.0 98.89      
18:00 11.8 6.4 69   10 9 15.0 98.86      
19:00 9.7 5.9 77   10 9 15.0 98.89      
20:00 9.0 5.7 80   10 15 15.0 98.88      
21:00 8.0 5.3 83   9 13 15.0 98.82      
22:00 7.7 5.2 84   7 11 15.0 98.76      
23:00 8.0 5.1 82   7 11 15.0 98.70      

Notes on Data Quality.

Legend

  • E = Estimated
  • M = Missing
  • NA = Not Available*
  • [empty] = Indicates an unobserved value
Date modified: